Precipitable_Water
0.46 0.42 0.41 0.40 0.39 0.40 0.41 0.41 0.38 0.34 0.32 0.29 0.27 0.26 0.24 0.23 0.23 0.22 0.22 0.23 0.22 0.23 0.24 0.23 0.24 0.25 0.23 0.23 0.26 0.26 0.27 0.28 0.25 0.30 0.37 0.43 0.49 0.54 0.58 0.61 0.60 0.59 0.58
0.49 0.47 0.46 0.44 0.42 0.43 0.41 0.40 0.37 0.33 0.30 0.28 0.27 0.25 0.22 0.22 0.23 0.23 0.21 0.21 0.20 0.20 0.21 0.21 0.21 0.23 0.23 0.23 0.22 0.23 0.25 0.26 0.24 0.22 0.26 0.28 0.33 0.42 0.49 0.54 0.58 0.58 0.57
0.51 0.51 0.48 0.44 0.47 0.44 0.41 0.36 0.34 0.33 0.30 0.29 0.26 0.22 0.22 0.22 0.22 0.22 0.22 0.21 0.20 0.20 0.20 0.19 0.19 0.20 0.20 0.22 0.21 0.21 0.23 0.26 0.26 0.25 0.24 0.26 0.24 0.25 0.30 0.36 0.44 0.52 0.53
0.55 0.49 0.43 0.43 0.45 0.39 0.38 0.37 0.35 0.31 0.27 0.25 0.22 0.23 0.24 0.24 0.23 0.23 0.22 0.21 0.20 0.20 0.20 0.19 0.19 0.17 0.17 0.19 0.20 0.20 0.22 0.24 0.25 0.24 0.23 0.22 0.22 0.24 0.25 0.24 0.28 0.36 0.39
0.49 0.45 0.40 0.43 0.48 0.42 0.39 0.38 0.36 0.31 0.27 0.23 0.24 0.25 0.26 0.25 0.26 0.24 0.21 0.21 0.22 0.21 0.20 0.20 0.18 0.19 0.18 0.18 0.18 0.18 0.19 0.21 0.21 0.22 0.20 0.19 0.17 0.18 0.20 0.24 0.24 0.27 0.31
0.45 0.44 0.41 0.44 0.47 0.43 0.39 0.39 0.35 0.30 0.25 0.26 0.26 0.26 0.25 0.21 0.22 0.22 0.23 0.23 0.22 0.22 0.21 0.20 0.18 0.19 0.20 0.19 0.18 0.18 0.17 0.16 0.17 0.17 0.17 0.15 0.15 0.15 0.18 0.20 0.21 0.23 0.21
0.45 0.45 0.43 0.50 0.49 0.39 0.38 0.36 0.32 0.27 0.26 0.26 0.27 0.27 0.24 0.21 0.21 0.21 0.22 0.22 0.22 0.21 0.21 0.20 0.19 0.19 0.20 0.18 0.17 0.16 0.16 0.15 0.16 0.16 0.15 0.15 0.15 0.15 0.15 0.16 0.17 0.20 0.24
0.48 0.51 0.53 0.54 0.48 0.38 0.37 0.32 0.29 0.26 0.26 0.26 0.26 0.26 0.24 0.20 0.21 0.21 0.22 0.23 0.22 0.21 0.21 0.22 0.21 0.19 0.18 0.19 0.16 0.15 0.17 0.18 0.19 0.18 0.18 0.18 0.18 0.18 0.17 0.17 0.16 0.17 0.25
0.52 0.55 0.56 0.52 0.43 0.36 0.34 0.30 0.27 0.26 0.26 0.26 0.26 0.25 0.24 0.20 0.20 0.20 0.22 0.22 0.22 0.22 0.22 0.21 0.21 0.19 0.17 0.18 0.17 0.17 0.19 0.21 0.21 0.21 0.21 0.20 0.20 0.19 0.18 0.17 0.16 0.16 0.16
0.52 0.53 0.51 0.48 0.38 0.36 0.32 0.28 0.26 0.26 0.26 0.26 0.25 0.27 0.26 0.22 0.20 0.21 0.23 0.22 0.23 0.23 0.24 0.24 0.21 0.18 0.18 0.16 0.18 0.19 0.18 0.18 0.21 0.21 0.22 0.22 0.21 0.21 0.19 0.18 0.16 0.14 0.15
0.52 0.53 0.46 0.42 0.38 0.33 0.29 0.26 0.24 0.25 0.25 0.25 0.25 0.25 0.26 0.25 0.21 0.21 0.23 0.25 0.25 0.24 0.24 0.24 0.22 0.18 0.17 0.17 0.19 0.18 0.17 0.20 0.22 0.21 0.21 0.21 0.20 0.20 0.20 0.20 0.19 0.17 0.14
0.49 0.43 0.41 0.38 0.32 0.29 0.27 0.25 0.25 0.25 0.25 0.23 0.22 0.22 0.23 0.24 0.24 0.21 0.22 0.23 0.25 0.24 0.23 0.24 0.22 0.17 0.18 0.19 0.19 0.18 0.19 0.20 0.21 0.20 0.19 0.19 0.18 0.18 0.18 0.19 0.19 0.19 0.19
0.42 0.38 0.35 0.32 0.29 0.28 0.27 0.26 0.26 0.27 0.23 0.22 0.22 0.22 0.23 0.23 0.24 0.23 0.21 0.21 0.22 0.24 0.24 0.19 0.18 0.19 0.20 0.22 0.21 0.20 0.21 0.19 0.18 0.17 0.17 0.17 0.17 0.18 0.18 0.18 0.18 0.18 0.18
0.38 0.34 0.33 0.30 0.28 0.28 0.28 0.28 0.28 0.25 0.23 0.23 0.22 0.22 0.23 0.24 0.25 0.25 0.25 0.23 0.20 0.22 0.22 0.22 0.21 0.22 0.22 0.23 0.23 0.22 0.21 0.18 0.17 0.16 0.16 0.16 0.16 0.16 0.16 0.15 0.15 0.14 0.14
0.36 0.32 0.31 0.30 0.27 0.27 0.27 0.29 0.28 0.28 0.28 0.26 0.24 0.23 0.23 0.23 0.26 0.29 0.28 0.26 0.26 0.25 0.23 0.23 0.23 0.22 0.22 0.22 0.22 0.20 0.19 0.18 0.16 0.16 0.15 0.14 0.13 0.13 0.13 0.13 0.13 0.13 0.12
0.31 0.31 0.29 0.28 0.26 0.27 0.27 0.29 0.30 0.30 0.28 0.28 0.28 0.27 0.27 0.28 0.29 0.28 0.26 0.25 0.24 0.22 0.23 0.22 0.22 0.22 0.22 0.20 0.19 0.18 0.17 0.16 0.14 0.13 0.13 0.12 0.11 0.11 0.11 0.12 0.12 0.11 0.11
0.31 0.29 0.28 0.28 0.27 0.27 0.26 0.27 0.25 0.27 0.28 0.26 0.26 0.25 0.26 0.27 0.28 0.26 0.25 0.25 0.23 0.22 0.22 0.23 0.22 0.22 0.21 0.19 0.17 0.16 0.14 0.14 0.13 0.12 0.11 0.11 0.10 0.10 0.10 0.10 0.10 0.10 0.09
0.32 0.31 0.30 0.29 0.29 0.27 0.27 0.27 0.27 0.26 0.23 0.24 0.26 0.26 0.27 0.27 0.27 0.28 0.27 0.26 0.23 0.23 0.23 0.22 0.22 0.21 0.20 0.18 0.16 0.14 0.13 0.12 0.12 0.11 0.10 0.10 0.10 0.09 0.09 0.09 0.09 0.09 0.08
0.34 0.32 0.33 0.32 0.31 0.29 0.29 0.28 0.29 0.29 0.26 0.27 0.29 0.27 0.27 0.29 0.28 0.28 0.26 0.25 0.24 0.24 0.24 0.21 0.22 0.21 0.20 0.18 0.16 0.14 0.12 0.12 0.10 0.10 0.10 0.10 0.09 0.09 0.09 0.09 0.09 0.09 0.08
0.34 0.33 0.32 0.31 0.30 0.30 0.29 0.29 0.28 0.29 0.30 0.31 0.30 0.30 0.29 0.28 0.26 0.26 0.26 0.26 0.25 0.26 0.25 0.22 0.21 0.20 0.20 0.18 0.14 0.13 0.12 0.11 0.10 0.10 0.10 0.09 0.09 0.09 0.08 0.08 0.08 0.08 0.08
0.34 0.32 0.32 0.32 0.31 0.30 0.31 0.31 0.31 0.31 0.31 0.32 0.33 0.33 0.32 0.29 0.27 0.27 0.26 0.27 0.26 0.25 0.24 0.23 0.22 0.21 0.19 0.15 0.12 0.11 0.11 0.10 0.10 0.10 0.09 0.09 0.09 0.08 0.09 0.08 0.08 0.08 0.08
0.35 0.32 0.30 0.30 0.32 0.33 0.33 0.33 0.33 0.33 0.33 0.32 0.33 0.33 0.32 0.30 0.29 0.27 0.28 0.28 0.26 0.26 0.25 0.23 0.21 0.19 0.15 0.12 0.11 0.10 0.10 0.10 0.10 0.09 0.09 0.09 0.09 0.08 0.08 0.08 0.08 0.08 0.08
0.36 0.32 0.30 0.33 0.35 0.35 0.34 0.35 0.35 0.34 0.33 0.33 0.32 0.30 0.29 0.27 0.27 0.28 0.27 0.26 0.25 0.24 0.23 0.22 0.19 0.16 0.13 0.11 0.10 0.10 0.10 0.10 0.10 0.09 0.08 0.08 0.08 0.08 0.08 0.08 0.08 0.07 0.07
0.36 0.34 0.34 0.35 0.34 0.34 0.35 0.34 0.34 0.33 0.32 0.31 0.30 0.30 0.28 0.28 0.28 0.27 0.25 0.24 0.24 0.23 0.21 0.18 0.15 0.13 0.10 0.09 0.10 0.10 0.10 0.10 0.10 0.09 0.09 0.08 0.08 0.08 0.08 0.08 0.07 0.07 0.07
0.37 0.35 0.35 0.34 0.34 0.34 0.34 0.33 0.32 0.31 0.31 0.30 0.29 0.29 0.29 0.27 0.25 0.24 0.24 0.23 0.22 0.19 0.16 0.14 0.12 0.09 0.08 0.08 0.08 0.09 0.09 0.08 0.08 0.08 0.08 0.08 0.08 0.08 0.07 0.07 0.07 0.07 0.07
0.36 0.35 0.34 0.35 0.34 0.34 0.32 0.32 0.31 0.31 0.30 0.30 0.29 0.28 0.26 0.25 0.24 0.23 0.22 0.20 0.16 0.15 0.13 0.11 0.09 0.09 0.09 0.09 0.09 0.09 0.08 0.08 0.08 0.08 0.08 0.08 0.08 0.08 0.07 0.07 0.07 0.07 0.07
Wind_Speed
18 17 17 16 17 17 17 17 17 16 15 14 12 11 11 10 9 9 9 9 9 10 11 12 12 13 14 15 15 16 17 17 16 16 16 16 15 15 15 15 16 17 18
19 19 18 18 18 17 17 16 15 14 13 11 10 9 8 8 7 7 7 7 8 9 10 11 13 14 15 16 16 17 18 18 17 17 17 16 16 15 14 14 14 15 16
21 21 20 19 18 17 16 15 14 12 11 10 9 8 7 6 6 6 6 7 7 9 10 11 13 14 16 17 18 18 19 18 18 18 17 17 16 16 15 14 14 14 15
23 22 21 20 19 17 15 14 13 11 10 9 8 7 6 5 5 6 6 7 8 9 10 12 13 15 17 18 19 19 20 19 19 18 18 17 17 17 16 15 15 14 14
24 24 23 21 19 17 15 14 12 11 10 9 8 7 7 6 7 6 7 7 8 10 11 13 15 16 17 19 19 20 20 19 19 19 18 18 18 18 17 17 16 16 14
24 23 21 20 18 16 15 14 12 11 10 9 8 8 7 7 7 8 8 9 10 11 13 14 16 18 18 19 19 19 20 20 20 20 19 19 19 19 19 19 18 17 16
23 20 19 18 18 17 15 14 13 12 11 10 9 8 7 7 8 9 9 10 11 12 14 15 17 18 19 20 20 20 20 20 20 20 20 20 20 21 21 20 20 19 17
22 21 20 19 18 17 16 15 14 12 11 10 10 9 8 9 9 10 11 11 12 13 15 17 18 19 20 21 21 21 21 21 22 21 21 21 21 22 21 21 21 20 18
21 21 20 20 19 18 17 16 14 13 12 11 10 10 10 10 10 11 13 13 14 15 16 18 19 20 21 22 22 22 22 23 23 23 23 23 23 23 23 22 21 20 21
21 20 20 20 19 19 18 16 15 14 12 11 11 10 10 11 12 13 14 15 15 16 17 18 20 21 22 23 23 24 24 24 25 25 25 25 25 25 24 23 23 23 23
20 20 20 20 20 19 18 17 16 14 13 12 12 12 12 12 13 15 16 16 17 18 19 20 21 23 23 24 24 25 25 26 26 26 26 26 26 26 26 25 25 24 24
19 19 20 20 20 19 18 17 16 15 14 14 14 14 14 15 15 16 17 18 19 19 20 21 23 24 24 25 26 26 27 27 27 28 28 28 28 28 27 27 26 26 25
17 18 19 20 19 18 18 17 17 16 16 16 16 16 16 17 17 17 18 18 19 20 21 23 24 25 26 26 27 27 28 28 29 29 29 29 29 28 28 27 26 26 26
17 18 18 19 18 18 18 18 17 17 17 17 17 17 17 18 18 19 19 19 20 21 23 24 25 26 26 27 28 29 29 29 30 30 29 28 28 27 26 26 26 25 25
16 17 18 18 18 18 18 18 18 18 18 18 18 18 18 19 20 19 20 21 22 23 24 25 26 26 27 28 29 30 30 30 29 29 28 28 27 27 27 26 26 25 25
16 17 17 17 18 18 18 17 17 17 18 17 17 18 19 20 19 20 21 22 22 24 25 25 26 27 28 29 30 31 30 29 29 29 29 28 28 28 27 27 26 26 26
16 16 17 17 18 18 18 18 17 18 17 18 19 19 20 20 20 21 22 23 24 25 26 26 27 28 29 30 31 30 30 30 30 29 29 29 28 27 27 27 27 27 27
16 16 16 17 17 17 18 17 17 17 18 19 20 20 20 20 21 22 23 24 24 26 27 27 28 29 30 30 30 31 31 30 30 30 29 28 27 27 28 28 28 29 29
15 16 16 16 16 16 16 17 17 17 17 18 19 20 21 22 23 24 24 25 26 27 26 28 29 30 30 31 31 31 31 30 30 28 28 28 28 29 29 30 31 31 31
15 15 15 15 15 16 16 16 17 17 18 19 20 20 21 22 23 25 26 26 27 28 28 29 30 30 31 32 32 31 30 29 28 28 29 29 30 31 31 32 32 33 33
13 14 14 14 15 15 16 16 17 18 19 20 21 22 22 23 24 26 26 27 27 28 29 29 30 30 31 32 31 30 29 29 29 30 30 31 32 32 33 33 33 33 33
13 13 14 14 14 15 16 17 18 19 20 21 22 22 23 24 26 27 27 26 27 28 29 30 30 31 32 31 31 29 29 30 30 31 32 32 33 33 33 33 33 32 32
13 13 14 14 15 15 17 18 19 20 21 22 22 22 24 26 26 26 26 27 29 29 29 30 31 31 31 30 29 30 30 30 31 32 33 33 33 33 33 32 32 32 32
13 14 14 15 16 17 18 19 20 21 21 22 23 23 24 25 25 26 27 28 28 29 30 31 31 31 30 30 30 30 31 31 32 33 33 33 33 32 32 32 32 31 31
14 14 15 15 17 18 18 19 20 21 22 22 23 24 24 25 25 27 28 28 29 29 30 30 30 30 29 30 30 31 31 32 33 33 33 33 32 32 31 31 30 30 29
14 15 16 17 18 19 20 20 21 21 22 22 23 24 25 26 27 27 28 29 29 30 30 29 29 29 29 30 30 30 31 32 32 32 32 31 31 30 30 29 29 29 29
Wind_Direction
249 254 260 266 272 277 280 280 279 279 282 283 284 288 293 297 305 311 318 324 331 334 337 338 338 337 336 336 335 336 335 332 323 322 325 328 328 318 304 289 280 274 271
251 255 261 267 272 275 278 276 275 275 275 276 278 283 288 296 303 311 322 329 335 339 340 341 341 338 337 337 335 334 333 334 329 321 320 323 325 325 319 306 290 282 278
252 257 262 265 269 273 273 271 269 269 268 268 271 274 281 289 301 313 320 327 334 337 338 340 339 338 336 335 334 333 331 329 329 325 319 318 319 322 319 315 307 293 286
252 256 260 263 262 265 266 263 263 261 256 257 262 267 272 284 297 306 313 321 328 332 334 335 335 336 335 332 331 331 329 328 327 327 327 321 318 317 315 315 310 303 296
252 255 257 256 255 255 255 256 255 248 247 251 254 259 266 277 286 297 307 314 318 324 326 330 333 331 334 334 330 330 328 326 325 324 323 323 321 317 314 310 307 304 295
251 251 250 246 243 245 249 248 242 239 242 245 248 255 263 275 279 292 299 307 315 319 323 325 326 329 326 329 330 331 331 328 325 323 320 319 319 317 310 307 305 300 296
242 242 238 238 238 241 243 236 233 235 238 240 244 252 262 273 279 290 300 303 309 315 319 321 323 325 326 325 325 326 328 329 326 322 320 319 316 316 312 306 301 298 291
233 235 236 236 235 237 234 228 230 232 234 237 244 252 263 273 278 288 298 299 306 313 317 319 321 323 325 323 322 322 323 322 322 320 317 315 314 313 310 305 303 296 284
233 233 234 233 234 230 224 225 228 229 232 238 245 253 264 272 277 287 297 297 302 307 312 318 319 321 323 323 320 319 318 319 317 316 314 313 311 311 311 305 303 298 293
230 232 233 230 226 221 221 224 225 228 232 239 247 258 267 275 280 288 297 294 298 302 307 311 318 319 319 320 319 318 316 315 314 313 311 309 308 307 307 305 300 296 292
230 231 227 223 219 218 221 223 225 229 235 243 252 262 272 278 284 287 295 295 297 300 303 307 311 315 316 317 317 316 315 312 311 310 309 307 307 305 304 302 300 294 291
228 224 220 217 217 218 219 223 227 232 239 247 255 263 271 278 284 289 292 296 298 299 302 305 309 312 313 315 315 315 313 312 310 309 308 307 306 304 302 300 297 295 290
219 216 213 213 215 218 221 226 231 238 243 249 257 265 271 277 284 288 292 295 297 300 302 305 307 310 311 311 313 314 313 311 310 309 308 307 305 303 301 299 297 294 292
214 211 211 213 217 221 227 232 237 242 247 253 260 267 272 277 282 287 290 293 297 299 302 304 306 308 309 310 311 312 312 311 310 309 308 307 306 305 303 301 299 296 293
212 212 214 218 222 227 232 237 242 247 253 257 263 269 273 278 282 285 289 292 296 299 301 304 306 308 309 310 310 310 310 311 310 309 308 307 306 304 303 301 299 298 295
215 217 221 225 229 232 236 241 248 250 255 262 267 271 277 282 281 285 289 293 296 299 302 303 305 308 309 309 310 310 310 310 310 308 307 306 306 304 303 301 299 297 295
221 223 226 230 234 236 239 243 248 254 260 263 268 274 278 281 283 286 290 293 295 298 301 302 305 307 308 309 309 309 309 309 308 308 307 306 305 304 303 302 300 299 297
227 230 233 236 238 239 242 246 251 255 260 266 271 275 278 281 284 288 291 291 295 297 299 302 304 306 308 308 309 309 308 308 307 307 306 306 305 304 303 302 301 300 298
232 234 237 238 239 240 244 248 254 260 265 269 274 277 279 282 285 288 292 290 294 297 297 301 303 305 307 308 308 308 308 307 307 306 306 306 305 304 303 302 300 299 297
236 236 235 237 239 241 246 252 258 264 269 272 276 280 282 284 287 289 290 292 293 296 299 301 303 304 306 307 307 307 307 306 306 306 305 305 305 304 303 302 301 299 297
236 234 235 238 241 245 251 257 263 268 273 277 280 282 282 285 288 290 290 292 293 297 298 300 302 303 306 306 306 306 305 305 305 305 305 305 305 304 303 302 301 300 298
236 236 238 242 247 253 258 265 269 274 277 281 283 284 284 287 291 293 293 291 295 298 299 300 301 303 305 305 305 304 304 305 305 305 305 305 305 305 304 303 301 300 299
238 240 242 249 255 261 266 271 275 278 281 283 284 286 288 290 291 293 294 295 297 298 298 300 301 303 304 304 304 304 304 305 305 306 306 306 306 305 304 303 302 301 300
242 245 250 257 262 268 273 276 279 281 283 285 286 287 291 292 293 294 295 297 297 298 299 300 302 302 302 302 303 304 305 305 306 306 307 306 306 305 305 304 303 302 301
249 253 258 264 269 273 277 280 282 284 285 287 288 290 292 294 295 296 297 297 298 298 299 301 301 302 302 302 302 303 305 305 306 306 307 306 306 305 305 304 303 303 302
256 260 265 270 275 278 280 282 284 286 287 288 290 292 293 295 296 297 298 298 298 299 300 300 301 301 302 303 304 304 305 306 307 307 307 307 307 307 306 306 305 304 303